North Bend, OR

6:15 AM PDT on June 23, 2017 (GMT -0700)
North Bend Municipal

Weather History for KOTH - March, 2013

Change the Weather History Date:

Saturday, March 30, 2013

  Actual Average Record
Temperature  
Mean Temperature 57 °F 48 °F  
Max Temperature 70 °F 54 °F 77 °F (1911)
Min Temperature 43 °F 42 °F 31 °F (1936)
Degree Days  
Heating Degree Days 8 17  
Month to date heating degree days 501 519  
Since 1 July heating degree days 3539 3693  
Cooling Degree Days 0 0  
Month to date cooling degree days 0 0  
Year to date cooling degree days 0 0  
Growing Degree Days 6 (Base 50)    
Moisture  
Dew Point 50 °F    
Average Humidity 85    
Maximum Humidity 100    
Minimum Humidity 59    
Precipitation  
Precipitation 0.00 in 0.22 in 1.93 in (1974)
Month to date precipitation 2.87 7.60  
Year to date precipitation 9.64 25.38  
Sea Level Pressure  
Sea Level Pressure 30.05 in    
Wind  
Wind Speed 4 mph (West)    
Max Wind Speed 15 mph    
Max Gust Speed 18 mph    
Visibility 10 miles    
Events      
T = Trace of Precipitation, MM = Missing Value Source: NWS Daily Summary

Daily Weather History Graph

Daily Weather History Graph

Search for Another Location

Airport or City:

Trip Planner

Search our weather history database for the weather conditions in past years. The results will help you decide how hot, cold, wet, or windy it might be!

Date:

Astronomy

Mar. 30, 2013 Rise Set
Actual Time 7:01 AM PDT 7:41 PM PDT
Civil Twilight 6:32 AM PDT 8:10 PM PDT
Nautical Twilight 5:58 AM PDT 8:44 PM PDT
Astronomical Twilight 5:23 AM PDT 9:20 PM PDT
Moon No Moon Rise 8:54 AM PDT (3/30)
Length of Visible Light 13h 37m
Length of Day
12h 40m
Waning Gibbous, 85% of the Moon is Illuminated
Mar 30
Waning Gibbous
Apr 2
Last Quarter
Apr 10
New
Apr 18
First Quarter
Apr 25
Full

Hourly Weather History & Observations

Time (PDT) Temp. Dew Point Humidity Pressure Visibility Wind Dir Wind Speed Gust Speed Precip Events Conditions
12:15 AM 48.2 °F 48.2 °F 100% 30.13 in 10.0 mi Calm Calm - N/A   Clear
12:35 AM 48.2 °F 48.2 °F 100% 30.13 in 9.0 mi Calm Calm - N/A   Clear
12:55 AM 48.2 °F 48.2 °F 100% 30.13 in 8.0 mi Calm Calm - N/A   Clear
1:15 AM 48.2 °F 48.2 °F 100% 30.13 in 7.0 mi Calm Calm - N/A   Clear
1:35 AM 48.2 °F 48.2 °F 100% 30.12 in 7.0 mi Calm Calm - N/A   Clear
1:55 AM 46.4 °F 46.4 °F 100% 30.12 in 7.0 mi Calm Calm - N/A   Clear
2:15 AM 48.2 °F 46.4 °F 93% 30.12 in 3.0 mi Calm Calm - N/A   Clear
2:35 AM 48.2 °F 46.4 °F 93% 30.11 in 10.0 mi Calm Calm - N/A   Clear
2:55 AM 46.4 °F 46.4 °F 100% 30.11 in 7.0 mi Calm Calm - N/A   Clear
3:15 AM 46.4 °F 46.4 °F 100% 30.10 in 10.0 mi Calm Calm - N/A   Clear
3:35 AM 46.4 °F 46.4 °F 100% 30.10 in 7.0 mi Calm Calm - N/A   Clear
3:55 AM 46.4 °F 46.4 °F 100% 30.10 in 9.0 mi Calm Calm - N/A   Clear
4:15 AM 44.6 °F 42.8 °F 93% 30.09 in 10.0 mi Calm Calm - N/A   Clear
4:35 AM 44.6 °F 42.8 °F 93% 30.09 in 10.0 mi Calm Calm - N/A   Clear
4:55 AM 46.4 °F 46.4 °F 100% 30.09 in 10.0 mi Calm Calm - N/A   Clear
5:15 AM 44.6 °F 44.6 °F 100% 30.08 in 10.0 mi Calm Calm - N/A   Clear
5:35 AM 44.6 °F 44.6 °F 100% 30.08 in 5.0 mi Calm Calm - N/A   Clear
5:55 AM 44.6 °F 44.6 °F 100% 30.07 in 10.0 mi Calm Calm - N/A   Clear
6:15 AM 46.4 °F 46.4 °F 100% 30.07 in 10.0 mi Calm Calm - N/A   Clear
6:35 AM 42.8 °F 42.8 °F 100% 30.08 in 10.0 mi Calm Calm - N/A   Clear
6:55 AM 44.6 °F 44.6 °F 100% 30.07 in 10.0 mi Calm Calm - N/A   Clear
7:15 AM 44.6 °F 44.6 °F 100% 30.07 in 10.0 mi Calm Calm - N/A   Clear
7:35 AM 44.6 °F 44.6 °F 100% 30.07 in 10.0 mi Calm Calm - N/A   Clear
7:55 AM 44.6 °F 44.6 °F 100% 30.07 in 10.0 mi Calm Calm - N/A   Clear
8:15 AM 48.2 °F 48.2 °F 100% 30.07 in 10.0 mi Calm Calm - N/A   Clear
8:35 AM 50.0 °F 48.2 °F 94% 30.07 in 10.0 mi Calm Calm - N/A   Clear
8:55 AM 51.8 °F 50.0 °F 94% 30.06 in 10.0 mi Calm Calm - N/A   Clear
9:15 AM 53.6 °F 51.8 °F 94% 30.06 in 10.0 mi Calm Calm - N/A   Clear
9:35 AM 53.6 °F 51.8 °F 94% 30.05 in 10.0 mi NE 4.6 mph - N/A   Clear
9:55 AM 55.4 °F 53.6 °F 94% 30.05 in 10.0 mi Calm Calm - N/A   Clear
10:15 AM 60.8 °F 55.4 °F 82% 30.05 in 10.0 mi Calm Calm - N/A   Clear
10:35 AM 62.6 °F 55.4 °F 77% 30.05 in 10.0 mi Calm Calm - N/A   Clear
10:55 AM 64.4 °F 57.2 °F 77% 30.04 in 10.0 mi West 5.8 mph - N/A   Clear
11:15 AM 66.2 °F 55.4 °F 68% 30.04 in 10.0 mi West 5.8 mph - N/A   Clear
11:35 AM 66.2 °F 55.4 °F 68% 30.04 in 10.0 mi West 6.9 mph - N/A   Clear
11:55 AM 66.2 °F 55.4 °F 68% 30.04 in 10.0 mi WNW 5.8 mph - N/A   Clear
12:15 PM 68.0 °F 55.4 °F 64% 30.03 in 10.0 mi West 6.9 mph - N/A   Clear
12:35 PM 68.0 °F 53.6 °F 60% 30.03 in 10.0 mi West 9.2 mph - N/A   Clear
12:55 PM 68.0 °F 53.6 °F 60% 30.03 in 10.0 mi WNW 8.1 mph - N/A   Clear
1:15 PM 69.8 °F 53.6 °F 56% 30.03 in 10.0 mi WNW 6.9 mph - N/A   Clear
1:35 PM 69.8 °F 53.6 °F 56% 30.02 in 10.0 mi NW 6.9 mph - N/A   Clear
1:55 PM 68.0 °F 53.6 °F 60% 30.02 in 10.0 mi NNW 8.1 mph - N/A   Clear
2:15 PM 66.2 °F 53.6 °F 64% 30.02 in 10.0 mi NW 8.1 mph - N/A   Clear
2:35 PM 66.2 °F 53.6 °F 64% 30.01 in 10.0 mi NW 8.1 mph - N/A   Clear
2:55 PM 66.2 °F 53.6 °F 64% 30.01 in 10.0 mi NW 8.1 mph - N/A   Clear
3:15 PM 66.2 °F 53.6 °F 64% 30.00 in 10.0 mi NW 10.4 mph - N/A   Clear
3:35 PM 66.2 °F 53.6 °F 64% 30.00 in 10.0 mi NW 8.1 mph - N/A   Clear
3:55 PM 66.2 °F 53.6 °F 64% 30.00 in 10.0 mi North 3.5 mph - N/A   Clear
4:15 PM 64.4 °F 51.8 °F 64% 29.99 in 10.0 mi North 8.1 mph - N/A   Clear
4:35 PM 66.2 °F 51.8 °F 60% 29.99 in 10.0 mi NNW 4.6 mph - N/A   Clear
4:55 PM 64.4 °F 51.8 °F 64% 29.99 in 10.0 mi WNW 9.2 mph - N/A   Clear
5:15 PM 62.6 °F 51.8 °F 68% 29.99 in 10.0 mi WNW 8.1 mph - N/A   Clear
5:35 PM 60.8 °F 51.8 °F 72% 29.98 in 10.0 mi West 10.4 mph - N/A   Clear
5:55 PM 60.8 °F 51.8 °F 72% 29.99 in 10.0 mi West 10.4 mph - N/A   Clear
6:15 PM 59.0 °F 51.8 °F 77% 29.99 in 10.0 mi WSW 12.7 mph - N/A   Clear
6:35 PM 59.0 °F 51.8 °F 77% 30.00 in 10.0 mi WSW 13.8 mph - N/A   Clear
6:55 PM 57.2 °F 51.8 °F 82% 30.01 in 10.0 mi WSW 15.0 mph 18.4 mph N/A   Clear
7:15 PM 55.4 °F 51.8 °F 88% 30.02 in 10.0 mi WSW 11.5 mph 18.4 mph N/A   Clear
7:35 PM 53.6 °F 51.8 °F 94% 30.03 in 10.0 mi WSW 6.9 mph - N/A   Clear
7:55 PM 53.6 °F 51.8 °F 94% 30.03 in 10.0 mi SW 5.8 mph - N/A   Scattered Clouds
8:15 PM 53.6 °F 50.0 °F 88% 30.04 in 10.0 mi SW 3.5 mph - N/A   Mostly Cloudy
8:35 PM 53.6 °F 50.0 °F 88% 30.05 in 10.0 mi WSW 3.5 mph - N/A   Partly Cloudy
8:55 PM 53.6 °F 50.0 °F 88% 30.05 in 10.0 mi SSW 3.5 mph - N/A   Clear
9:15 PM 53.6 °F 50.0 °F 88% 30.05 in 10.0 mi Calm Calm - N/A   Clear
9:35 PM 51.8 °F 50.0 °F 94% 30.07 in 10.0 mi Calm Calm - N/A   Clear
9:55 PM 51.8 °F 50.0 °F 94% 30.07 in 10.0 mi ESE 4.6 mph - N/A   Clear
10:15 PM 51.8 °F 50.0 °F 94% 30.07 in 10.0 mi SSE 6.9 mph - N/A   Clear
10:35 PM 51.8 °F 50.0 °F 94% 30.06 in 10.0 mi SSE 4.6 mph - N/A   Partly Cloudy
10:55 PM 53.6 °F 51.8 °F 94% 30.06 in 10.0 mi SSE 8.1 mph - N/A   Mostly Cloudy
11:15 PM 53.6 °F 51.8 °F 94% 30.04 in 10.0 mi Calm Calm - N/A   Scattered Clouds
11:35 PM 53.6 °F 51.8 °F 94% 30.03 in 10.0 mi ESE 8.1 mph - N/A   Mostly Cloudy
11:55 PM 53.6 °F 51.8 °F 94% 30.03 in 10.0 mi SSE 4.6 mph - N/A   Scattered Clouds